FW2178 Weather Reports


Display with metric or nautical units.
time (UTC)temp
F
wind
direction
speed
MPH
gust
MPH
rain 1hr
in
rain 24hr
in
rain mn
in
humidity
%
barometer
mb
20210410135933 36 188 0.0 0.0 0.00 0.30 0.27 90 1017.4
20210410135231 36 189 0.0 2.0 0.01 0.30 0.27 90 1017.7
20210410134421 36 113 0.0 2.0 0.01 0.30 0.27 90 1017.5
20210410133925 36 116 0.0 2.0 0.02 0.30 0.27 90 1017.4
20210410133418 36 199 0.0 2.0 0.04 0.30 0.27 90 1017.4
20210410132832 36 236 1.0 2.0 0.05 0.30 0.27 91 1017.1
20210410132113 36 287 0.0 2.0 0.05 0.30 0.27 91 1017.3
20210410131404 36 274 0.0 2.0 0.05 0.30 0.27 90 1016.9
20210410130858 36 156 0.0 2.0 0.06 0.30 0.27 90 1016.9
20210410130355 36 300 0.0 2.0 0.07 0.30 0.27 91 1017.0
20210410125311 36 158 1.0 5.0 0.07 0.28 0.26 91 1017.0
20210410124339 37 237 0.0 0.0 0.07 0.27 0.25 91 1016.8
20210410123841 37 113 0.0 2.0 0.07 0.27 0.25 91 1016.6
20210410123517 37 50 0.0 5.0 0.07 0.25 0.22 91 1016.7
20210410122823 37 37 0.0 5.0 0.08 0.25 0.22 91 1016.7
20210410121833 37 320 0.0 2.0 0.08 0.25 0.22 91 1016.7
20210410121330 37 98 1.0 2.0 0.08 0.25 0.22 91 1016.6
20210410120835 37 315 0.0 0.0 0.07 0.22 0.21 91 1016.7
20210410120331 37 313 0.0 0.0 0.06 0.21 0.20 91 1016.6
20210410120122 37 265 0.0 0.0 0.05 0.21 0.19 91 1016.4
20210410115828 37 263 0.0 0.0 0.05 0.21 0.19 91 1016.2
20210410115032 37 265 0.0 0.0 0.05 0.21 0.19 91 1016.4
20210410114341 37 265 0.0 0.0 0.05 0.20 0.18 91 1016.2
20210410113829 37 144 0.0 0.0 0.06 0.20 0.18 91 1016.2
20210410113340 37 238 0.0 2.0 0.06 0.19 0.17 91 1016.2
20210410112905 38 265 0.0 2.0 0.05 0.17 0.15 95 1016.0
20210410112734 38 80 0.0 0.0 0.05 0.17 0.14 94 1015.8
20210410112102 38 52 0.0 0.0 0.05 0.17 0.14 94 1015.9
20210410111334 38 77 0.0 0.0 0.07 0.17 0.14 94 1015.7
20210410110831 38 51 0.0 0.0 0.08 0.17 0.14 94 1015.7
20210410110333 38 54 0.0 2.0 0.09 0.17 0.14 94 1015.8
20210410105925 38 85 0.0 2.0 0.09 0.17 0.14 94 1015.7
20210410105751 38 178 0.0 2.0 0.09 0.17 0.14 94 1015.3
20210410104913 38 186 0.0 0.0 0.09 0.17 0.14 94 1015.4
20210410104335 38 86 0.0 0.0 0.08 0.15 0.13 94 1015.3
20210410103826 39 51 0.0 0.0 0.07 0.13 0.12 94 1015.4
20210410103317 38 51 0.0 0.0 0.06 0.13 0.11 93 1015.3
20210410102907 39 50 0.0 0.0 0.06 0.12 0.11 93 1015.2
20210410102749 39 51 0.0 0.0 0.06 0.12 0.09 93 1015.1
20210410101903 39 52 0.0 0.0 0.07 0.12 0.09 93 1015.1
20210410101303 39 14 0.0 0.0 0.07 0.09 0.07 93 1015.2
20210410100807 39 22 0.0 0.0 0.06 0.08 0.06 93 1015.1
20210410100305 39 152 0.0 0.0 0.05 0.07 0.05 93 1014.9
20210410095959 39 79 0.0 0.0 0.05 0.07 0.05 92 1014.8
20210410095835 39 79 0.0 0.0 0.05 0.07 0.05 91 1014.7
20210410094958 39 116 0.0 2.0 0.05 0.07 0.05 90 1014.7
20210410094304 39 84 0.0 2.0 0.05 0.07 0.05 89 1014.7
20210410093804 39 69 0.0 0.0 0.05 0.07 0.05 88 1014.8
20210410093307 40 17 0.0 2.0 0.05 0.07 0.05 87 1014.7
20210410092808 40 60 0.0 2.0 0.05 0.07 0.05 85 1014.7
20210410092530 40 64 0.0 2.0 0.04 0.06 0.04 83 1014.7
20210410091851 40 65 0.0 2.0 0.01 0.04 0.01 82 1014.8
20210410091302 41 71 0.0 0.0 0.00 0.02 0.00 81 1014.6
20210410090807 41 81 0.0 2.0 0.00 0.02 0.00 80 1014.7
20210410090305 41 70 0.0 2.0 0.00 0.02 0.00 78 1014.5
20210410085855 41 123 0.0 2.0 0.00 0.02 0.00 77 1014.6
20210410085650 42 147 1.0 8.0 0.00 0.02 0.00 76 1014.6
20210410084835 42 119 1.0 8.0 0.00 0.02 0.00 75 1014.7
20210410084304 44 93 2.0 2.0 0.00 0.02 0.00 76 1014.6
20210410083804 44 259 0.0 2.0 0.00 0.02 0.00 75 1014.5
20210410083306 44 261 0.0 2.0 0.00 0.02 0.00 75 1014.2
20210410082803 44 52 0.0 2.0 0.00 0.02 0.00 74 1014.4
20210410082427 44 236 0.0 2.0 0.00 0.02 0.00 75 1014.2
20210410081830 44 260 0.0 2.0 0.00 0.02 0.00 76 1014.4
20210410081302 44 285 0.0 0.0 0.00 0.02 0.00 75 1014.3
20210410080812 44 258 0.0 2.0 0.00 0.02 0.00 76 1014.1
20210410080316 44 337 0.0 2.0 0.00 0.02 0.00 75 1014.3
20210410080001 44 199 1.0 2.0 0.00 0.02 0.00 75 1014.3
20210410075825 44 236 1.0 2.0 0.00 0.02 0.00 75 1014.4
20210410074858 44 325 0.0 2.0 0.00 0.02 0.00 74 1014.2
20210410074302 44 296 1.0 5.0 0.00 0.02 0.00 73 1013.9
20210410073814 44 242 2.0 5.0 0.00 0.02 0.00 72 1013.8
20210410073303 44 241 4.0 5.0 0.00 0.02 0.00 72 1013.5
20210410072805 44 275 0.0 8.0 0.00 0.02 0.00 72 1013.5
20210410072446 44 235 1.0 8.0 0.00 0.02 0.00 72 1013.4
20210410071838 44 242 1.0 5.0 0.00 0.02 0.00 72 1013.9
20210410071310 44 284 0.0 5.0 0.00 0.02 0.00 73 1013.6
20210410070810 44 263 1.0 5.0 0.00 0.02 0.00 73 1013.4
20210410070310 44 201 1.0 5.0 0.01 0.02 0.00 73 1013.3
20210410065930 44 235 2.0 5.0 0.02 0.02 0.02 73 1013.3
20210410065757 44 236 1.0 5.0 0.02 0.02 0.02 73 1013.7
20210410064840 44 236 3.0 5.0 0.02 0.02 0.02 74 1013.5
20210410064304 44 237 2.0 5.0 0.02 0.02 0.02 74 1013.6
20210410063807 44 243 1.0 5.0 0.02 0.02 0.02 75 1013.4
20210410063529 44 243 1.0 5.0 0.02 0.02 0.02 75 1013.5
20210410063153 44 276 0.0 5.0 0.02 0.02 0.02 75 1013.7
20210410062846 44 231 1.0 5.0 0.02 0.02 0.02 76 1013.6
20210410061842 43 235 2.0 5.0 0.02 0.02 0.02 77 1013.8
20210410061307 43 236 1.0 5.0 0.02 0.02 0.02 77 1013.7
20210410060802 43 258 1.0 5.0 0.02 0.02 0.02 75 1013.6
20210410060342 44 271 2.0 5.0 0.01 0.01 0.01 71 1013.7
20210410060101 44 236 2.0 5.0 0.00 0.00 0.00 69 1013.8
20210410055842 44 255 1.0 5.0 0.00 0.00 0.00 67 1013.6
20210410054940 45 241 3.0 8.0 0.00 0.00 0.00 66 1013.7
20210410054304 45 293 0.0 8.0 0.00 0.00 0.00 65 1013.9
20210410053808 45 235 0.0 5.0 0.00 0.00 0.00 65 1014.0
20210410053305 45 236 1.0 8.0 0.00 0.00 0.00 66 1014.0
20210410052952 45 267 3.0 8.0 0.00 0.00 0.00 66 1014.0
20210410052755 45 256 4.0 8.0 0.00 0.00 0.00 67 1014.2
20210410051844 45 236 1.0 8.0 0.00 0.00 0.00 67 1014.1
20210410051302 45 269 1.0 8.0 0.00 0.00 0.00 67 1014.0
20210410050813 45 260 2.0 8.0 0.00 0.00 0.00 67 1014.1
20210410050319 45 237 2.0 5.0 0.00 0.00 0.00 67 1014.2
20210410050038 45 244 3.0 8.0 0.00 0.00 0.00 65 1014.2
20210410045836 45 266 1.0 8.0 0.00 0.00 0.00 64 1014.2
20210410044822 45 256 2.0 8.0 0.00 0.00 0.00 64 1014.4
20210410044302 45 280 3.0 5.0 0.00 0.00 0.00 64 1014.5
20210410043804 45 270 1.0 5.0 0.00 0.00 0.00 63 1014.6
20210410043310 45 254 2.0 8.0 0.00 0.00 0.00 63 1014.7
20210410042837 45 271 2.0 8.0 0.00 0.00 0.00 63 1014.9
20210410042644 45 257 5.0 8.0 0.00 0.00 0.00 62 1014.9
20210410041818 45 200 2.0 5.0 0.00 0.00 0.00 62 1014.7
20210410041300 45 266 1.0 5.0 0.00 0.00 0.00 62 1015.2
20210410040756 45 236 2.0 5.0 0.00 0.00 0.00 62 1015.3
20210410040253 45 244 1.0 5.0 0.00 0.00 0.00 62 1015.2
20210410040027 45 267 1.0 5.0 0.00 0.00 0.00 62 1015.1
20210410035820 45 228 3.0 5.0 0.00 0.00 0.00 63 1015.3
20210410034743 45 258 1.0 8.0 0.00 0.00 0.00 63 1015.1
20210410034232 45 239 3.0 8.0 0.00 0.00 0.00 63 1015.2
20210410033731 45 236 1.0 5.0 0.00 0.00 0.00 63 1015.0
20210410033231 45 235 2.0 5.0 0.00 0.00 0.00 63 1015.2
20210410032939 45 257 2.0 5.0 0.00 0.00 0.00 63 1015.1
20210410032825 45 245 1.0 2.0 0.00 0.00 0.00 63 1015.4
20210410031827 45 235 1.0 5.0 0.00 0.00 0.00 62 1015.6
20210410031252 45 207 0.0 5.0 0.00 0.00 0.00 62 1015.8
20210410030936 45 250 2.0 5.0 0.00 0.00 0.00 62 1015.6
20210410030556 45 235 0.0 5.0 0.00 0.00 0.00 62 1015.6
20210410030115 45 258 0.0 5.0 0.00 0.00 0.00 61 1015.9
20210410025905 45 237 0.0 5.0 0.00 0.00 0.00 61 1015.6
20210410024812 45 223 1.0 5.0 0.00 0.00 0.00 61 1015.6
20210410024231 45 266 0.0 5.0 0.00 0.00 0.00 60 1016.0
20210410023734 45 267 1.0 5.0 0.00 0.00 0.00 60 1016.0
20210410023242 46 282 2.0 2.0 0.00 0.00 0.00 60 1016.1
20210410022851 46 236 1.0 5.0 0.00 0.00 0.00 60 1016.0
20210410022622 46 242 3.0 5.0 0.00 0.00 0.00 60 1015.9
20210410021745 46 236 3.0 5.0 0.00 0.00 0.00 59 1016.3
20210410021230 46 195 3.0 5.0 0.00 0.00 0.00 59 1016.3
20210410020733 46 237 4.0 8.0 0.00 0.00 0.00 59 1016.4
20210410020230 46 235 2.0 8.0 0.00 0.00 0.00 58 1016.3
20210410015904 46 233 1.0 5.0 0.00 0.00 0.00 58 1016.2
20210410015628 46 244 2.0 5.0 0.00 0.00 0.00 58 1016.4
20210410014748 46 270 2.0 5.0 0.00 0.00 0.00 58 1016.5
20210410014237 47 276 1.0 5.0 0.00 0.00 0.00 57 1016.3
20210410013732 47 243 1.0 5.0 0.00 0.00 0.00 57 1016.4
20210410013230 47 279 2.0 5.0 0.00 0.00 0.00 57 1016.4
20210410012918 47 239 2.0 5.0 0.00 0.00 0.00 56 1016.2
20210410012539 47 235 2.0 5.0 0.00 0.00 0.00 56 1016.5
20210410011735 47 249 2.0 5.0 0.00 0.00 0.00 56 1016.4
20210410011229 47 261 0.0 5.0 0.00 0.00 0.00 55 1016.7
20210410010730 47 268 1.0 5.0 0.00 0.00 0.00 55 1016.9
20210410010233 47 255 4.0 5.0 0.00 0.00 0.00 55 1016.7
20210410005802 47 247 2.0 5.0 0.00 0.00 0.00 55 1016.5
20210410004819 47 235 0.0 5.0 0.00 0.00 0.00 55 1016.7
20210410004236 47 235 1.0 8.0 0.00 0.00 0.00 55 1016.5
20210410003730 47 194 0.0 8.0 0.00 0.00 0.00 54 1016.7
20210410003231 47 235 2.0 8.0 0.00 0.00 0.00 54 1016.9
20210410002657 47 259 1.0 5.0 0.00 0.00 0.00 53 1017.0
20210410001811 47 235 2.0 5.0 0.00 0.00 0.00 53 1017.3
20210410001234 47 259 3.0 5.0 0.00 0.00 0.00 53 1017.3
20210410000731 47 241 2.0 5.0 0.00 0.00 0.00 53 1017.3
20210410000242 47 255 2.0 5.0 0.00 0.00 0.00 53 1017.4
20210409235853 47 235 2.0 8.0 0.00 0.00 0.00 53 1017.4
20210409234853 47 200 2.0 8.0 0.00 0.00 0.00 55 1017.4
20210409234231 47 236 0.0 8.0 0.00 0.00 0.00 54 1017.4
20210409233731 47 236 0.0 5.0 0.00 0.00 0.00 54 1017.7
20210409233232 47 230 1.0 5.0 0.00 0.00 0.00 55 1017.7
20210409232852 47 285 2.0 5.0 0.00 0.00 0.00 55 1017.3
20210409232626 47 236 1.0 5.0 0.00 0.00 0.00 56 1017.5
20210409231742 47 264 0.0 5.0 0.00 0.00 0.00 55 1017.7
20210409231221 47 235 2.0 5.0 0.00 0.00 0.00 55 1017.7
20210409230727 47 207 1.0 5.0 0.00 0.00 0.00 55 1017.8
20210409230516 47 208 3.0 5.0 0.00 0.00 0.00 56 1017.9
20210409230154 47 244 0.0 2.0 0.00 0.00 0.00 55 1017.9
20210409225831 47 288 1.0 2.0 0.00 0.00 0.00 55 1018.2
20210409224705 47 260 0.0 5.0 0.00 0.00 0.00 55 1018.0
20210409224202 47 196 2.0 5.0 0.00 0.00 0.00 55 1018.2
20210409223703 47 257 1.0 5.0 0.00 0.00 0.00 54 1018.0
20210409223210 47 226 2.0 5.0 0.00 0.00 0.00 54 1018.2
20210409222741 47 189 2.0 5.0 0.00 0.00 0.00 54 1018.2
20210409222348 48 206 1.0 5.0 0.00 0.00 0.00 53 1018.4
20210409221702 47 181 1.0 5.0 0.00 0.00 0.00 53 1018.7
20210409221205 48 235 1.0 5.0 0.00 0.00 0.00 52 1018.7
20210409220704 48 261 2.0 5.0 0.00 0.00 0.00 52 1018.8
20210409220202 48 256 1.0 5.0 0.00 0.00 0.00 52 1019.0
20210409215829 48 194 2.0 5.0 0.00 0.00 0.00 52 1018.9
20210409215601 48 265 2.0 5.0 0.00 0.00 0.00 51 1018.9
20210409214712 48 236 3.0 5.0 0.00 0.00 0.00 51 1018.9
20210409214203 48 283 1.0 5.0 0.00 0.00 0.00 50 1018.9
20210409213708 48 260 0.0 5.0 0.00 0.00 0.00 49 1019.0
20210409213216 48 303 1.0 5.0 0.00 0.00 0.00 50 1019.0
20210409212848 49 240 1.0 5.0 0.00 0.00 0.00 49 1019.2
20210409212448 49 277 0.0 5.0 0.00 0.00 0.00 50 1019.3
20210409211714 48 250 0.0 5.0 0.00 0.00 0.00 50 1019.5
20210409211210 48 266 1.0 5.0 0.00 0.00 0.00 50 1019.2
20210409210705 48 236 2.0 5.0 0.00 0.00 0.00 52 1019.4
20210409210205 48 252 2.0 5.0 0.00 0.00 0.00 52 1019.3
20210409205858 47 232 1.0 5.0 0.00 0.00 0.00 51 1019.6
20210409205547 47 50 0.0 5.0 0.00 0.00 0.00 52 1019.4
20210409204648 47 236 2.0 5.0 0.00 0.00 0.00 52 1019.8
20210409204204 47 235 2.0 5.0 0.00 0.00 0.00 52 1019.4
20210409203642 47 255 2.0 5.0 0.00 0.00 0.00 52 1019.6
20210409203149 47 262 0.0 5.0 0.00 0.00 0.00 51 1019.6
20210409202830 47 241 1.0 5.0 0.00 0.00 0.00 51 1019.7
20210409202353 47 257 2.0 5.0 0.00 0.00 0.00 52 1019.9
20210409201640 47 236 2.0 5.0 0.00 0.00 0.00 52 1019.8
20210409201143 47 225 2.0 8.0 0.00 0.00 0.00 51 1019.9
20210409200640 47 234 2.0 8.0 0.00 0.00 0.00 51 1020.0
20210409200244 46 255 2.0 5.0 0.00 0.00 0.00 52 1019.9
20210409195955 47 261 0.0 5.0 0.00 0.00 0.00 54 1019.8
20210409195655 46 256 2.0 5.0 0.00 0.00 0.00 52 1020.0
20210409194638 46 235 1.0 5.0 0.00 0.00 0.00 54 1019.7
20210409194133 46 259 1.0 8.0 0.00 0.00 0.00 54 1019.9
20210409193636 46 256 4.0 8.0 0.00 0.00 0.00 53 1020.2
20210409193131 46 179 0.0 5.0 0.00 0.00 0.00 53 1020.2
20210409192856 46 236 2.0 5.0 0.00 0.00 0.00 52 1020.1
20210409192445 47 236 0.0 5.0 0.00 0.00 0.00 52 1020.4
20210409191630 47 235 1.0 5.0 0.00 0.00 0.00 52 1020.1
20210409191132 47 125 0.0 5.0 0.00 0.00 0.00 52 1020.0
20210409190636 47 235 1.0 5.0 0.00 0.00 0.00 52 1020.3
20210409190252 47 270 0.0 5.0 0.00 0.00 0.00 52 1020.2
20210409190027 47 266 2.0 8.0 0.00 0.00 0.00 52 1020.4
20210409185731 47 243 1.0 8.0 0.00 0.00 0.00 52 1020.3
20210409184641 46 243 2.0 5.0 0.00 0.00 0.00 52 1020.2
20210409184131 47 236 1.0 5.0 0.00 0.00 0.00 53 1020.4
20210409183633 47 186 1.0 5.0 0.00 0.00 0.00 53 1020.5
20210409183155 47 234 1.0 5.0 0.00 0.00 0.00 53 1020.4
20210409182917 47 140 0.0 5.0 0.00 0.00 0.00 53 1020.8
20210409182658 47 236 0.0 5.0 0.00 0.00 0.00 54 1020.5
20210409181632 46 198 3.0 5.0 0.00 0.00 0.00 54 1020.7
20210409181131 45 258 2.0 5.0 0.00 0.00 0.00 55 1020.9
20210409180657 45 266 0.0 5.0 0.00 0.00 0.00 56 1020.9
20210409180424 45 269 0.0 5.0 0.00 0.00 0.00 56 1021.0
20210409180109 45 196 1.0 5.0 0.00 0.00 0.00 57 1021.0
20210409175610 45 198 1.0 5.0 0.00 0.00 0.00 57 1021.1
20210409174624 45 308 1.0 5.0 0.00 0.00 0.00 58 1020.9
20210409174124 45 235 0.0 2.0 0.00 0.00 0.00 58 1020.9
20210409173609 45 238 1.0 2.0 0.00 0.00 0.00 59 1020.8
20210409173147 43 239 1.0 5.0 0.00 0.00 0.00 60 1020.9
20210409172841 43 237 0.0 5.0 0.00 0.00 0.00 59 1021.3
20210409172508 44 232 1.0 5.0 0.00 0.00 0.00 59 1021.2
20210409171614 44 236 1.0 2.0 0.00 0.00 0.00 59 1021.1
20210409171107 44 265 1.0 5.0 0.00 0.00 0.00 59 1021.0
20210409170624 43 235 1.0 5.0 0.00 0.00 0.00 60 1020.9
20210409170149 43 235 1.0 2.0 0.00 0.00 0.00 63 1021.1
20210409165935 43 236 0.0 2.0 0.00 0.00 0.00 64 1020.9
20210409165750 42 199 0.0 2.0 0.00 0.00 0.00 65 1021.1
20210409164638 42 193 0.0 2.0 0.00 0.00 0.00 66 1021.3
20210409164108 42 187 0.0 0.0 0.00 0.00 0.00 65 1021.3
20210409163624 42 232 0.0 0.0 0.00 0.00 0.00 66 1021.5
20210409163108 42 253 0.0 0.0 0.00 0.00 0.00 65 1021.5
20210409162710 41 230 0.0 2.0 0.00 0.00 0.00 66 1021.4
20210409162256 41 233 0.0 2.0 0.00 0.00 0.00 67 1021.3
20210409161727 41 184 0.0 2.0 0.00 0.00 0.00 66 1021.3
20210409161219 41 269 0.0 2.0 0.00 0.00 0.00 67 1021.4
20210409160701 41 238 0.0 2.0 0.00 0.00 0.00 67 1021.6
20210409160400 41 247 2.0 2.0 0.00 0.00 0.00 69 1021.6
20210409155715 41 266 0.0 2.0 0.00 0.00 0.00 71 1021.4
20210409155216 41 257 0.0 2.0 0.00 0.00 0.00 72 1021.7
20210409150110 37 263 0.0 0.0 0.00 0.00 0.00 91 1021.9
20210409145834 37 267 0.0 0.0 0.00 0.00 0.00 89 1021.6
20210409144712 36 283 0.0 0.0 0.00 0.00 0.00 90 1021.8
20210409144221 36 11 0.0 0.0 0.00 0.00 0.00 90 1021.8
20210409143710 35 11 0.0 0.0 0.00 0.00 0.00 91 1021.8
20210409143214 35 28 0.0 0.0 0.00 0.00 0.00 90 1021.7
20210409142815 35 39 0.0 0.0 0.00 0.00 0.00 90 1021.8
20210409142456 35 340 0.0 0.0 0.00 0.00 0.00 90 1021.8
20210409141719 34 340 0.0 0.0 0.00 0.00 0.00 90 1021.8
20210409141307 34 340 0.0 0.0 0.00 0.00 0.00 89 1021.9
20210409140701 34 340 0.0 0.0 0.00 0.00 0.00 89 1021.6
20210409140355 34 340 0.0 0.0 0.00 0.00 0.00 89 1021.8